Time,TemperatureF,DewpointF,PressureIn,WindDirection,WindDirectionDegrees,WindSpeedMPH,WindSpeedGustMPH,Humidity,HourlyPrecipIn,Conditions,Clouds,dailyrainin,SoftwareType,DateUTC
2013-02-18 00:00:00,11.0,0.2,29.88,NW,320,0.0,8.0,61,0.00,,,0.00,WeatherCatV1.00B22,2013-02-18 05:00:00,
2013-02-18 00:05:00,10.9,0.1,29.89,NNW,329,3.0,4.0,61,0.00,,,0.00,WeatherCatV1.00B22,2013-02-18 05:05:00,
2013-02-18 00:10:00,10.9,0.1,29.89,NNW,333,0.0,4.0,61,0.00,,,0.00,WeatherCatV1.00B22,2013-02-18 05:10:00,
2013-02-18 00:15:00,10.8,0.0,29.89,NW,322,4.0,6.0,61,0.00,,,0.00,WeatherCatV1.00B22,2013-02-18 05:15:00,
2013-02-18 00:20:00,10.8,-0.3,29.90,NNW,327,3.0,6.0,60,0.00,,,0.00,WeatherCatV1.00B22,2013-02-18 05:20:00,
2013-02-18 00:25:00,10.8,0.0,29.90,NNE,12,1.0,5.0,61,0.00,,,0.00,WeatherCatV1.00B22,2013-02-18 05:25:00,
2013-02-18 00:30:00,10.7,-0.1,29.90,NNW,342,3.0,6.0,61,0.00,,,0.00,WeatherCatV1.00B22,2013-02-18 05:30:00,
2013-02-18 00:35:00,10.7,-0.1,29.91,NE,38,5.0,5.0,61,0.00,,,0.00,WeatherCatV1.00B22,2013-02-18 05:35:00,
2013-02-18 00:40:00,10.6,-0.2,29.91,NNE,26,3.0,5.0,61,0.00,,,0.00,WeatherCatV1.00B22,2013-02-18 05:40:00,
2013-02-18 00:45:00,10.5,-0.3,29.91,NW,304,2.0,2.0,61,0.00,,,0.00,WeatherCatV1.00B22,2013-02-18 05:45:00,
2013-02-18 00:50:00,10.5,-0.3,29.92,NNW,340,3.0,7.0,61,0.00,,,0.00,WeatherCatV1.00B22,2013-02-18 05:50:00,
2013-02-18 00:55:00,10.5,-0.3,29.92,NE,39,3.0,5.0,61,0.00,,,0.00,WeatherCatV1.00B22,2013-02-18 05:55:00,
2013-02-18 01:00:00,10.4,-0.3,29.92,WNW,294,5.0,9.0,61,0.00,,,0.00,WeatherCatV1.00B22,2013-02-18 06:00:00,
2013-02-18 01:05:00,10.4,-0.3,29.93,WNW,301,2.0,4.0,61,0.00,,,0.00,WeatherCatV1.00B22,2013-02-18 06:05:00,
2013-02-18 01:10:00,10.3,-0.1,29.93,NW,316,3.0,5.0,62,0.00,,,0.00,WeatherCatV1.00B22,2013-02-18 06:10:00,
2013-02-18 01:15:00,10.3,-0.1,29.93,NNW,336,4.0,4.0,62,0.00,,,0.00,WeatherCatV1.00B22,2013-02-18 06:15:00,
2013-02-18 01:20:00,10.2,-0.2,29.94,NNE,30,2.0,7.0,62,0.00,,,0.00,WeatherCatV1.00B22,2013-02-18 06:20:00,
2013-02-18 01:25:00,10.2,-0.2,29.94,WNW,299,5.0,5.0,62,0.00,,,0.00,WeatherCatV1.00B22,2013-02-18 06:25:00,
2013-02-18 01:30:00,10.2,-0.2,29.94,NNE,23,3.0,6.0,62,0.00,,,0.00,WeatherCatV1.00B22,2013-02-18 06:30:00,
2013-02-18 01:35:00,10.1,-0.3,29.94,North,0,1.0,4.0,62,0.00,,,0.00,WeatherCatV1.00B22,2013-02-18 06:35:00,
2013-02-18 01:40:00,10.1,-0.3,29.94,NW,313,3.0,8.0,62,0.00,,,0.00,WeatherCatV1.00B22,2013-02-18 06:40:00,
2013-02-18 01:45:00,10.1,-0.3,29.94,NE,53,2.0,5.0,62,0.00,,,0.00,WeatherCatV1.00B22,2013-02-18 06:45:00,
2013-02-18 01:50:00,10.0,-0.4,29.94,North,355,2.0,5.0,62,0.00,,,0.00,WeatherCatV1.00B22,2013-02-18 06:50:00,
2013-02-18 01:55:00,9.9,-0.5,29.95,West,271,2.0,5.0,62,0.00,,,0.00,WeatherCatV1.00B22,2013-02-18 06:55:00,
2013-02-18 02:00:00,9.9,-0.5,29.95,NNW,346,2.0,6.0,62,0.00,,,0.00,WeatherCatV1.00B22,2013-02-18 07:00:00,
2013-02-18 02:05:00,9.8,-0.2,29.95,North,350,4.0,5.0,63,0.00,,,0.00,WeatherCatV1.00B22,2013-02-18 07:05:00,
2013-02-18 02:10:00,9.8,-0.2,29.95,North,5,2.0,4.0,63,0.00,,,0.00,WeatherCatV1.00B22,2013-02-18 07:10:00,
2013-02-18 02:15:00,9.7,-0.7,29.95,NNW,343,2.0,5.0,62,0.00,,,0.00,WeatherCatV1.00B22,2013-02-18 07:15:00,
2013-02-18 02:20:00,9.7,-0.3,29.96,NNW,329,2.0,4.0,63,0.00,,,0.00,WeatherCatV1.00B22,2013-02-18 07:20:00,
2013-02-18 02:25:00,9.6,-0.4,29.96,NNW,327,2.0,7.0,63,0.00,,,0.00,WeatherCatV1.00B22,2013-02-18 07:25:00,
2013-02-18 02:30:00,9.5,-0.2,29.97,WNW,298,2.0,3.0,64,0.00,,,0.00,WeatherCatV1.00B22,2013-02-18 07:30:00,
2013-02-18 02:35:00,9.5,-0.5,29.97,NNE,29,0.0,2.0,63,0.00,,,0.00,WeatherCatV1.00B22,2013-02-18 07:35:00,
2013-02-18 02:40:00,9.4,-0.6,29.97,NNW,334,2.0,4.0,63,0.00,,,0.00,WeatherCatV1.00B22,2013-02-18 07:40:00,
2013-02-18 02:45:00,9.4,-0.6,29.97,NE,35,4.0,5.0,63,0.00,,,0.00,WeatherCatV1.00B22,2013-02-18 07:45:00,
2013-02-18 02:50:00,9.3,-0.7,29.97,WNW,283,1.0,8.0,63,0.00,,,0.00,WeatherCatV1.00B22,2013-02-18 07:50:00,
2013-02-18 02:55:00,9.3,-0.7,29.97,NNW,342,1.0,6.0,63,0.00,,,0.00,WeatherCatV1.00B22,2013-02-18 07:55:00,
2013-02-18 03:00:00,9.2,-0.5,29.97,North,5,8.0,8.0,64,0.00,,,0.00,WeatherCatV1.00B22,2013-02-18 08:00:00,
2013-02-18 03:05:00,9.2,-0.5,29.98,North,5,1.0,3.0,64,0.00,,,0.00,WeatherCatV1.00B22,2013-02-18 08:05:00,
2013-02-18 03:10:00,9.1,-0.6,29.98,NNW,338,0.0,3.0,64,0.00,,,0.00,WeatherCatV1.00B22,2013-02-18 08:10:00,
2013-02-18 03:15:00,9.1,-0.6,29.98,NNW,342,1.0,4.0,64,0.00,,,0.00,WeatherCatV1.00B22,2013-02-18 08:15:00,
2013-02-18 03:20:00,9.1,-0.6,29.98,WNW,293,1.0,6.0,64,0.00,,,0.00,WeatherCatV1.00B22,2013-02-18 08:20:00,
2013-02-18 03:25:00,9.0,-0.7,29.98,NNE,14,1.0,5.0,64,0.00,,,0.00,WeatherCatV1.00B22,2013-02-18 08:25:00,
2013-02-18 03:30:00,8.9,-0.8,29.99,NNE,21,2.0,3.0,64,0.00,,,0.00,WeatherCatV1.00B22,2013-02-18 08:30:00,
2013-02-18 03:35:00,8.9,-0.8,29.99,NNW,328,2.0,2.0,64,0.00,,,0.00,WeatherCatV1.00B22,2013-02-18 08:35:00,
2013-02-18 03:40:00,8.7,-0.6,29.99,North,355,2.0,4.0,65,0.00,,,0.00,WeatherCatV1.00B22,2013-02-18 08:40:00,
2013-02-18 03:45:00,8.6,-0.7,30.00,NNW,347,3.0,5.0,65,0.00,,,0.00,WeatherCatV1.00B22,2013-02-18 08:45:00,
2013-02-18 03:50:00,8.5,-0.5,30.00,NW,325,3.0,7.0,66,0.00,,,0.00,WeatherCatV1.00B22,2013-02-18 08:50:00,
2013-02-18 03:55:00,8.3,-0.7,30.00,NNE,17,4.0,4.0,66,0.00,,,0.00,WeatherCatV1.00B22,2013-02-18 08:55:00,
2013-02-18 04:00:00,8.2,-0.8,30.00,North,355,3.0,5.0,66,0.00,,,0.00,WeatherCatV1.00B22,2013-02-18 09:00:00,
2013-02-18 04:05:00,8.1,-0.6,30.00,NNW,334,1.0,5.0,67,0.00,,,0.00,WeatherCatV1.00B22,2013-02-18 09:05:00,
2013-02-18 04:10:00,8.0,-0.6,30.01,North,5,1.0,3.0,67,0.00,,,0.00,WeatherCatV1.00B22,2013-02-18 09:10:00,
2013-02-18 04:15:00,8.0,-0.6,30.01,NNE,12,4.0,4.0,67,0.00,,,0.00,WeatherCatV1.00B22,2013-02-18 09:15:00,
2013-02-18 04:20:00,7.9,-0.7,30.01,NNE,22,1.0,5.0,67,0.00,,,0.00,WeatherCatV1.00B22,2013-02-18 09:20:00,
2013-02-18 04:25:00,7.8,-0.8,30.02,NNE,15,1.0,3.0,67,0.00,,,0.00,WeatherCatV1.00B22,2013-02-18 09:25:00,
2013-02-18 04:30:00,7.7,-0.6,30.02,NW,322,2.0,5.0,68,0.00,,,0.00,WeatherCatV1.00B22,2013-02-18 09:30:00,
2013-02-18 04:35:00,7.6,-1.0,30.02,NNW,330,3.0,3.0,67,0.00,,,0.00,WeatherCatV1.00B22,2013-02-18 09:35:00,
2013-02-18 04:40:00,7.6,-1.0,30.02,NNW,333,3.0,4.0,67,0.00,,,0.00,WeatherCatV1.00B22,2013-02-18 09:40:00,
2013-02-18 04:45:00,7.5,-1.1,30.02,NW,305,3.0,5.0,67,0.00,,,0.00,WeatherCatV1.00B22,2013-02-18 09:45:00,
2013-02-18 04:50:00,7.4,-0.9,30.03,NNW,343,3.0,3.0,68,0.00,,,0.00,WeatherCatV1.00B22,2013-02-18 09:50:00,
2013-02-18 04:55:00,7.3,-1.0,30.03,North,0,0.0,3.0,68,0.00,,,0.00,WeatherCatV1.00B22,2013-02-18 09:55:00,
2013-02-18 05:00:00,7.2,-1.1,30.03,North,0,1.0,2.0,68,0.00,,,0.00,WeatherCatV1.00B22,2013-02-18 10:00:00,
2013-02-18 05:05:00,7.1,-1.2,30.03,North,0,4.0,5.0,68,0.00,,,0.00,WeatherCatV1.00B22,2013-02-18 10:05:00,
2013-02-18 05:10:00,7.1,-1.2,30.04,NNW,346,3.0,4.0,68,0.00,,,0.00,WeatherCatV1.00B22,2013-02-18 10:10:00,
2013-02-18 05:15:00,7.1,-1.2,30.04,NW,319,3.0,6.0,68,0.00,,,0.00,WeatherCatV1.00B22,2013-02-18 10:15:00,
2013-02-18 05:20:00,7.1,-1.2,30.04,ENE,65,0.0,3.0,68,0.00,,,0.00,WeatherCatV1.00B22,2013-02-18 10:20:00,
2013-02-18 05:25:00,6.9,-1.4,30.04,NNW,344,5.0,5.0,68,0.00,,,0.00,WeatherCatV1.00B22,2013-02-18 10:25:00,
2013-02-18 05:30:00,6.9,-1.4,30.04,NNW,348,4.0,5.0,68,0.00,,,0.00,WeatherCatV1.00B22,2013-02-18 10:30:00,
2013-02-18 05:35:00,6.9,-1.4,30.05,North,5,1.0,3.0,68,0.00,,,0.00,WeatherCatV1.00B22,2013-02-18 10:35:00,
2013-02-18 05:40:00,6.8,-1.5,30.06,NNE,26,0.0,5.0,68,0.00,,,0.00,WeatherCatV1.00B22,2013-02-18 10:40:00,
2013-02-18 05:45:00,6.7,-1.6,30.06,NNW,340,2.0,3.0,68,0.00,,,0.00,WeatherCatV1.00B22,2013-02-18 10:45:00,
2013-02-18 05:50:00,6.8,-1.5,30.06,North,355,1.0,4.0,68,0.00,,,0.00,WeatherCatV1.00B22,2013-02-18 10:50:00,
2013-02-18 05:52:00,6.7,-1.6,30.07,NW,315,3.0,5.0,68,0.00,,,0.00,WeatherCatV1.00B22,2013-02-18 10:52:00,
2013-02-18 05:57:00,6.7,-1.6,30.07,NE,49,7.0,7.0,68,0.00,,,0.00,WeatherCatV1.00B22,2013-02-18 10:57:00,
2013-02-18 06:02:00,6.5,-1.8,30.07,NE,45,4.0,5.0,68,0.00,,,0.00,WeatherCatV1.00B22,2013-02-18 11:02:00,
2013-02-18 06:07:00,6.5,-1.5,30.08,NNE,29,3.0,5.0,69,0.00,,,0.00,WeatherCatV1.00B22,2013-02-18 11:07:00,
2013-02-18 06:12:00,6.4,-1.6,30.08,NE,44,1.0,6.0,69,0.00,,,0.00,WeatherCatV1.00B22,2013-02-18 11:12:00,
2013-02-18 06:17:00,6.4,-1.6,30.08,North,0,3.0,3.0,69,0.00,,,0.00,WeatherCatV1.00B22,2013-02-18 11:17:00,
2013-02-18 06:22:00,6.4,-1.9,30.09,North,0,3.0,4.0,68,0.00,,,0.00,WeatherCatV1.00B22,2013-02-18 11:22:00,
2013-02-18 06:27:00,6.4,-1.6,30.09,NNE,18,2.0,7.0,69,0.00,,,0.00,WeatherCatV1.00B22,2013-02-18 11:27:00,
2013-02-18 06:32:00,6.3,-1.7,30.10,NW,319,1.0,5.0,69,0.00,,,0.00,WeatherCatV1.00B22,2013-02-18 11:32:00,
2013-02-18 06:37:00,6.3,-1.7,30.11,WNW,297,0.0,6.0,69,0.00,,,0.00,WeatherCatV1.00B22,2013-02-18 11:37:00,
2013-02-18 06:42:00,6.3,-1.7,30.11,NNW,342,0.0,3.0,69,0.00,,,0.00,WeatherCatV1.00B22,2013-02-18 11:42:00,
2013-02-18 06:47:00,6.3,-1.7,30.12,NNE,28,0.0,6.0,69,0.00,,,0.00,WeatherCatV1.00B22,2013-02-18 11:47:00,
2013-02-18 06:52:00,6.2,-1.8,30.12,NW,326,2.0,4.0,69,0.00,,,0.00,WeatherCatV1.00B22,2013-02-18 11:52:00,
2013-02-18 06:57:00,6.2,-1.5,30.12,North,0,2.0,2.0,70,0.00,,,0.00,WeatherCatV1.00B22,2013-02-18 11:57:00,
2013-02-18 07:02:00,6.1,-1.9,30.12,NNE,16,2.0,3.0,69,0.00,,,0.00,WeatherCatV1.00B22,2013-02-18 12:02:00,
2013-02-18 07:07:00,6.0,-1.9,30.13,NNE,27,4.0,4.0,69,0.00,,,0.00,WeatherCatV1.00B22,2013-02-18 12:07:00,
2013-02-18 07:12:00,6.0,-1.9,30.13,North,0,3.0,7.0,69,0.00,,,0.00,WeatherCatV1.00B22,2013-02-18 12:12:00,
2013-02-18 07:17:00,6.1,-1.5,30.14,NNE,15,4.0,4.0,70,0.00,,,0.00,WeatherCatV1.00B22,2013-02-18 12:17:00,
2013-02-18 07:22:00,6.4,-1.3,30.14,ENE,59,4.0,6.0,70,0.00,,,0.00,WeatherCatV1.00B22,2013-02-18 12:22:00,
2013-02-18 07:27:00,6.6,-1.4,30.14,NNW,345,3.0,5.0,69,0.00,,,0.00,WeatherCatV1.00B22,2013-02-18 12:27:00,
2013-02-18 07:32:00,6.8,-1.2,30.14,NNW,340,2.0,2.0,69,0.00,,,0.00,WeatherCatV1.00B22,2013-02-18 12:32:00,
2013-02-18 07:37:00,7.2,-1.1,30.15,NNW,337,3.0,3.0,68,0.00,,,0.00,WeatherCatV1.00B22,2013-02-18 12:37:00,
2013-02-18 07:42:00,7.6,-0.7,30.15,NNE,21,2.0,4.0,68,0.00,,,0.00,WeatherCatV1.00B22,2013-02-18 12:42:00,
2013-02-18 07:47:00,8.0,-0.3,30.15,NNW,340,1.0,2.0,68,0.00,,,0.00,WeatherCatV1.00B22,2013-02-18 12:47:00,
2013-02-18 07:52:00,8.3,-0.7,30.15,NW,308,0.0,3.0,66,0.00,,,0.00,WeatherCatV1.00B22,2013-02-18 12:52:00,
2013-02-18 07:57:00,8.6,-0.7,30.15,NNE,17,0.0,0.0,65,0.00,,,0.00,WeatherCatV1.00B22,2013-02-18 12:57:00,
2013-02-18 08:02:00,8.6,-0.7,30.15,NW,323,2.0,4.0,65,0.00,,,0.00,WeatherCatV1.00B22,2013-02-18 13:02:00,
2013-02-18 08:07:00,8.6,-0.7,30.16,North,355,2.0,6.0,65,0.00,,,0.00,WeatherCatV1.00B22,2013-02-18 13:07:00,
2013-02-18 08:12:00,9.0,-0.3,30.16,WNW,296,2.0,4.0,65,0.00,,,0.00,WeatherCatV1.00B22,2013-02-18 13:12:00,
2013-02-18 08:17:00,9.2,-0.1,30.16,North,350,2.0,2.0,65,0.00,,,0.00,WeatherCatV1.00B22,2013-02-18 13:17:00,
2013-02-18 08:22:00,9.5,-0.2,30.16,NNW,348,0.0,2.0,64,0.00,,,0.00,WeatherCatV1.00B22,2013-02-18 13:22:00,
2013-02-18 08:27:00,10.1,0.4,30.16,North,355,1.0,3.0,64,0.00,,,0.00,WeatherCatV1.00B22,2013-02-18 13:27:00,
2013-02-18 08:32:00,10.4,0.3,30.16,NNE,18,0.0,3.0,63,0.00,,,0.00,WeatherCatV1.00B22,2013-02-18 13:32:00,
2013-02-18 08:37:00,10.8,0.4,30.16,West,280,1.0,4.0,62,0.00,,,0.00,WeatherCatV1.00B22,2013-02-18 13:37:00,
2013-02-18 08:42:00,11.0,0.6,30.16,NNE,32,0.0,4.0,62,0.00,,,0.00,WeatherCatV1.00B22,2013-02-18 13:42:00,
2013-02-18 08:47:00,11.3,0.2,30.16,West,265,1.0,3.0,60,0.00,,,0.00,WeatherCatV1.00B22,2013-02-18 13:47:00,
2013-02-18 08:52:00,11.6,0.8,30.17,NNE,16,4.0,6.0,61,0.00,,,0.00,WeatherCatV1.00B22,2013-02-18 13:52:00,
2013-02-18 08:57:00,12.0,1.2,30.17,North,5,4.0,4.0,61,0.00,,,0.00,WeatherCatV1.00B22,2013-02-18 13:57:00,
2013-02-18 09:02:00,12.1,0.6,30.17,North,5,0.0,3.0,59,0.00,,,0.00,WeatherCatV1.00B22,2013-02-18 14:02:00,
2013-02-18 09:07:00,12.6,1.4,30.16,NNW,342,2.0,4.0,60,0.00,,,0.00,WeatherCatV1.00B22,2013-02-18 14:07:00,
2013-02-18 09:12:00,13.2,1.6,30.16,NW,320,2.0,4.0,59,0.00,,,0.00,WeatherCatV1.00B22,2013-02-18 14:12:00,
2013-02-18 09:17:00,13.2,0.9,30.16,NNW,340,1.0,7.0,57,0.00,,,0.00,WeatherCatV1.00B22,2013-02-18 14:17:00,
2013-02-18 09:22:00,13.3,1.3,30.16,NNE,13,1.0,8.0,58,0.00,,,0.00,WeatherCatV1.00B22,2013-02-18 14:22:00,
2013-02-18 09:27:00,13.3,0.6,30.16,NNW,347,5.0,9.0,56,0.00,,,0.00,WeatherCatV1.00B22,2013-02-18 14:27:00,
2013-02-18 09:32:00,13.1,0.4,30.16,WNW,286,2.0,4.0,56,0.00,,,0.00,WeatherCatV1.00B22,2013-02-18 14:32:00,
2013-02-18 09:37:00,13.3,0.9,30.16,North,5,4.0,7.0,57,0.00,,,0.00,WeatherCatV1.00B22,2013-02-18 14:37:00,
2013-02-18 09:42:00,13.6,0.9,30.16,NW,319,3.0,7.0,56,0.00,,,0.00,WeatherCatV1.00B22,2013-02-18 14:42:00,
2013-02-18 09:47:00,13.8,0.3,30.15,West,263,2.0,7.0,54,0.00,,,0.00,WeatherCatV1.00B22,2013-02-18 14:47:00,
2013-02-18 09:52:00,14.1,0.5,30.16,North,0,10.0,10.0,54,0.00,,,0.00,WeatherCatV1.00B22,2013-02-18 14:52:00,
2013-02-18 09:57:00,14.1,0.9,30.16,West,278,3.0,5.0,55,0.00,,,0.00,WeatherCatV1.00B22,2013-02-18 14:57:00,
2013-02-18 10:02:00,14.3,0.3,30.16,North,355,1.0,4.0,53,0.00,,,0.00,WeatherCatV1.00B22,2013-02-18 15:02:00,
2013-02-18 10:07:00,14.4,0.4,30.16,West,279,1.0,8.0,53,0.00,,,0.00,WeatherCatV1.00B22,2013-02-18 15:07:00,
2013-02-18 10:12:00,14.6,1.4,30.16,SW,234,3.0,6.0,55,0.00,,,0.00,WeatherCatV1.00B22,2013-02-18 15:12:00,
2013-02-18 10:17:00,15.0,1.0,30.16,NW,321,2.0,10.0,53,0.00,,,0.00,WeatherCatV1.00B22,2013-02-18 15:17:00,
2013-02-18 10:22:00,15.2,0.8,30.16,NNW,345,6.0,8.0,52,0.00,,,0.00,WeatherCatV1.00B22,2013-02-18 15:22:00,
2013-02-18 10:27:00,15.3,0.9,30.16,West,281,3.0,6.0,52,0.00,,,0.00,WeatherCatV1.00B22,2013-02-18 15:27:00,
2013-02-18 10:32:00,15.3,0.9,30.16,NW,311,2.0,7.0,52,0.00,,,0.00,WeatherCatV1.00B22,2013-02-18 15:32:00,
2013-02-18 10:37:00,15.6,1.1,30.16,NNE,30,2.0,7.0,52,0.00,,,0.00,WeatherCatV1.00B22,2013-02-18 15:37:00,
2013-02-18 10:42:00,15.9,1.0,30.16,NW,315,2.0,5.0,51,0.00,,,0.00,WeatherCatV1.00B22,2013-02-18 15:42:00,
2013-02-18 10:47:00,16.1,0.8,30.17,West,259,0.0,6.0,50,0.00,,,0.00,WeatherCatV1.00B22,2013-02-18 15:47:00,
2013-02-18 10:52:00,16.3,1.0,30.17,WNW,292,5.0,8.0,50,0.00,,,0.00,WeatherCatV1.00B22,2013-02-18 15:52:00,
2013-02-18 10:57:00,16.8,1.8,30.16,WNW,286,6.0,6.0,51,0.00,,,0.00,WeatherCatV1.00B22,2013-02-18 15:57:00,
2013-02-18 11:02:00,17.1,1.3,30.16,NNE,20,0.0,5.0,49,0.00,,,0.00,WeatherCatV1.00B22,2013-02-18 16:02:00,
2013-02-18 11:07:00,17.1,1.3,30.17,NNW,346,4.0,5.0,49,0.00,,,0.00,WeatherCatV1.00B22,2013-02-18 16:07:00,
2013-02-18 11:12:00,17.4,0.7,30.17,NW,313,2.0,8.0,47,0.00,,,0.00,WeatherCatV1.00B22,2013-02-18 16:12:00,
2013-02-18 11:17:00,17.9,1.6,30.17,NNE,19,4.0,5.0,48,0.00,,,0.00,WeatherCatV1.00B22,2013-02-18 16:17:00,
2013-02-18 11:22:00,18.4,1.6,30.16,West,263,4.0,8.0,47,0.00,,,0.00,WeatherCatV1.00B22,2013-02-18 16:22:00,
2013-02-18 11:27:00,18.2,0.9,30.17,NW,321,4.0,9.0,46,0.00,,,0.00,WeatherCatV1.00B22,2013-02-18 16:27:00,
2013-02-18 11:32:00,18.5,1.2,30.17,East,101,0.0,5.0,46,0.00,,,0.00,WeatherCatV1.00B22,2013-02-18 16:32:00,
2013-02-18 11:37:00,18.7,0.9,30.17,WSW,249,5.0,5.0,45,0.00,,,0.00,WeatherCatV1.00B22,2013-02-18 16:37:00,
2013-02-18 11:42:00,19.1,1.8,30.17,NNE,15,1.0,6.0,46,0.00,,,0.00,WeatherCatV1.00B22,2013-02-18 16:42:00,
2013-02-18 11:47:00,19.8,1.5,30.17,NNW,341,3.0,11.0,44,0.00,,,0.00,WeatherCatV1.00B22,2013-02-18 16:47:00,
2013-02-18 11:52:00,20.0,1.1,30.16,NNE,19,0.0,7.0,43,0.00,,,0.00,WeatherCatV1.00B22,2013-02-18 16:52:00,
2013-02-18 11:57:00,20.4,1.5,30.16,North,355,2.0,6.0,43,0.00,,,0.00,WeatherCatV1.00B22,2013-02-18 16:57:00,
2013-02-18 12:02:00,20.4,1.0,30.17,NNW,341,3.0,4.0,42,0.00,,,0.00,WeatherCatV1.00B22,2013-02-18 17:02:00,
2013-02-18 12:07:00,20.7,2.3,30.16,North,5,4.0,6.0,44,0.00,,,0.00,WeatherCatV1.00B22,2013-02-18 17:07:00,
2013-02-18 12:12:00,20.5,1.6,30.16,West,267,8.0,8.0,43,0.00,,,0.00,WeatherCatV1.00B22,2013-02-18 17:12:00,
2013-02-18 12:17:00,20.4,1.0,30.16,North,0,1.0,7.0,42,0.00,,,0.00,WeatherCatV1.00B22,2013-02-18 17:17:00,
2013-02-18 12:22:00,20.5,1.1,30.16,North,9,4.0,10.0,42,0.00,,,0.00,WeatherCatV1.00B22,2013-02-18 17:22:00,
2013-02-18 12:27:00,20.2,1.3,30.16,NNW,332,0.0,11.0,43,0.00,,,0.00,WeatherCatV1.00B22,2013-02-18 17:27:00,
2013-02-18 12:32:00,20.3,0.9,30.16,West,265,4.0,6.0,42,0.00,,,0.00,WeatherCatV1.00B22,2013-02-18 17:32:00,
2013-02-18 12:37:00,20.5,1.6,30.15,SW,216,3.0,12.0,43,0.00,,,0.00,WeatherCatV1.00B22,2013-02-18 17:37:00,
2013-02-18 12:42:00,20.7,1.3,30.15,West,279,2.0,6.0,42,0.00,,,0.00,WeatherCatV1.00B22,2013-02-18 17:42:00,
2013-02-18 12:47:00,20.8,1.4,30.15,North,9,4.0,7.0,42,0.00,,,0.00,WeatherCatV1.00B22,2013-02-18 17:47:00,
2013-02-18 12:52:00,21.1,0.1,30.15,North,351,1.0,9.0,39,0.00,,,0.00,WeatherCatV1.00B22,2013-02-18 17:52:00,
2013-02-18 12:57:00,21.2,1.2,30.15,NW,318,4.0,7.0,41,0.00,,,0.00,WeatherCatV1.00B22,2013-02-18 17:57:00,
2013-02-18 13:02:00,21.1,0.6,30.15,WNW,291,1.0,9.0,40,0.00,,,0.00,WeatherCatV1.00B22,2013-02-18 18:02:00,
2013-02-18 13:07:00,21.1,0.6,30.14,NW,317,2.0,6.0,40,0.00,,,0.00,WeatherCatV1.00B22,2013-02-18 18:07:00,
2013-02-18 13:12:00,21.2,1.2,30.15,NNW,327,1.0,8.0,41,0.00,,,0.00,WeatherCatV1.00B22,2013-02-18 18:12:00,
2013-02-18 13:17:00,21.4,0.9,30.14,West,259,4.0,10.0,40,0.00,,,0.00,WeatherCatV1.00B22,2013-02-18 18:17:00,
2013-02-18 13:22:00,21.5,0.4,30.15,NW,318,5.0,9.0,39,0.00,,,0.00,WeatherCatV1.00B22,2013-02-18 18:22:00,
2013-02-18 13:27:00,21.8,0.7,30.15,NNW,331,1.0,7.0,39,0.00,,,0.00,WeatherCatV1.00B22,2013-02-18 18:27:00,
2013-02-18 13:32:00,22.2,1.1,30.15,WNW,297,2.0,8.0,39,0.00,,,0.00,WeatherCatV1.00B22,2013-02-18 18:32:00,
2013-02-18 13:37:00,22.2,1.1,30.14,North,349,3.0,8.0,39,0.00,,,0.00,WeatherCatV1.00B22,2013-02-18 18:37:00,
2013-02-18 13:42:00,22.1,0.4,30.14,ENE,59,2.0,7.0,38,0.00,,,0.00,WeatherCatV1.00B22,2013-02-18 18:42:00,
2013-02-18 13:47:00,22.4,1.2,30.14,East,91,2.0,4.0,39,0.00,,,0.00,WeatherCatV1.00B22,2013-02-18 18:47:00,
2013-02-18 13:52:00,22.9,1.1,30.14,NW,325,3.0,4.0,38,0.00,,,0.00,WeatherCatV1.00B22,2013-02-18 18:52:00,
2013-02-18 13:57:00,23.3,1.5,30.14,WNW,290,0.0,5.0,38,0.00,,,0.00,WeatherCatV1.00B22,2013-02-18 18:57:00,
2013-02-18 14:02:00,23.4,0.4,30.13,North,5,1.0,10.0,36,0.00,,,0.00,WeatherCatV1.00B22,2013-02-18 19:02:00,
2013-02-18 14:07:00,23.8,1.9,30.13,NNW,346,6.0,6.0,38,0.00,,,0.00,WeatherCatV1.00B22,2013-02-18 19:07:00,
2013-02-18 14:12:00,24.0,1.0,30.13,NNW,332,1.0,11.0,36,0.00,,,0.00,WeatherCatV1.00B22,2013-02-18 19:12:00,
2013-02-18 14:17:00,24.2,1.7,30.13,NNW,342,5.0,7.0,37,0.00,,,0.00,WeatherCatV1.00B22,2013-02-18 19:17:00,
2013-02-18 14:22:00,24.3,2.4,30.13,NW,311,1.0,3.0,38,0.00,,,0.00,WeatherCatV1.00B22,2013-02-18 19:22:00,
2013-02-18 14:27:00,24.7,2.2,30.14,West,260,0.0,5.0,37,0.00,,,0.00,WeatherCatV1.00B22,2013-02-18 19:27:00,
2013-02-18 14:32:00,24.7,3.3,30.13,SSE,162,2.0,8.0,39,0.00,,,0.00,WeatherCatV1.00B22,2013-02-18 19:32:00,
2013-02-18 14:37:00,24.7,4.4,30.13,SW,229,1.0,3.0,41,0.00,,,0.00,WeatherCatV1.00B22,2013-02-18 19:37:00,
2013-02-18 14:42:00,24.7,3.9,30.13,NNE,19,4.0,6.0,40,0.00,,,0.00,WeatherCatV1.00B22,2013-02-18 19:42:00,
2013-02-18 14:47:00,24.4,3.6,30.14,NE,34,3.0,4.0,40,0.00,,,0.00,WeatherCatV1.00B22,2013-02-18 19:47:00,
2013-02-18 14:52:00,24.6,3.8,30.14,NNW,348,0.0,3.0,40,0.00,,,0.00,WeatherCatV1.00B22,2013-02-18 19:52:00,
2013-02-18 14:57:00,24.9,3.5,30.14,NNW,333,0.0,4.0,39,0.00,,,0.00,WeatherCatV1.00B22,2013-02-18 19:57:00,
2013-02-18 15:02:00,24.9,3.5,30.14,WNW,284,1.0,6.0,39,0.00,,,0.00,WeatherCatV1.00B22,2013-02-18 20:02:00,
2013-02-18 15:07:00,24.8,3.4,30.14,North,5,3.0,4.0,39,0.00,,,0.00,WeatherCatV1.00B22,2013-02-18 20:07:00,
2013-02-18 15:12:00,24.9,4.0,30.14,West,281,3.0,8.0,40,0.00,,,0.00,WeatherCatV1.00B22,2013-02-18 20:12:00,
2013-02-18 15:17:00,25.0,3.6,30.14,NE,51,0.0,3.0,39,0.00,,,0.00,WeatherCatV1.00B22,2013-02-18 20:17:00,
2013-02-18 15:22:00,25.1,3.7,30.14,NNE,12,1.0,5.0,39,0.00,,,0.00,WeatherCatV1.00B22,2013-02-18 20:22:00,
2013-02-18 15:27:00,25.1,4.2,30.15,ENE,57,2.0,4.0,40,0.00,,,0.00,WeatherCatV1.00B22,2013-02-18 20:27:00,
2013-02-18 15:32:00,24.9,3.5,30.15,NW,315,4.0,8.0,39,0.00,,,0.00,WeatherCatV1.00B22,2013-02-18 20:32:00,
2013-02-18 15:37:00,24.7,3.9,30.15,NW,321,2.0,8.0,40,0.00,,,0.00,WeatherCatV1.00B22,2013-02-18 20:37:00,
2013-02-18 15:42:00,24.6,3.8,30.15,NW,325,3.0,5.0,40,0.00,,,0.00,WeatherCatV1.00B22,2013-02-18 20:42:00,
2013-02-18 15:47:00,24.5,4.2,30.15,WSW,238,2.0,6.0,41,0.00,,,0.00,WeatherCatV1.00B22,2013-02-18 20:47:00,
2013-02-18 15:52:00,24.4,4.1,30.15,NW,321,3.0,7.0,41,0.00,,,0.00,WeatherCatV1.00B22,2013-02-18 20:52:00,
2013-02-18 15:57:00,24.2,4.5,30.15,NW,319,2.0,2.0,42,0.00,,,0.00,WeatherCatV1.00B22,2013-02-18 20:57:00,
2013-02-18 16:02:00,24.2,4.5,30.14,NE,54,0.0,5.0,42,0.00,,,0.00,WeatherCatV1.00B22,2013-02-18 21:02:00,
2013-02-18 16:07:00,24.1,4.9,30.15,West,267,3.0,6.0,43,0.00,,,0.00,WeatherCatV1.00B22,2013-02-18 21:07:00,
2013-02-18 16:12:00,24.0,4.3,30.15,NW,321,3.0,6.0,42,0.00,,,0.00,WeatherCatV1.00B22,2013-02-18 21:12:00,
2013-02-18 16:17:00,24.0,4.8,30.14,North,355,2.0,7.0,43,0.00,,,0.00,WeatherCatV1.00B22,2013-02-18 21:17:00,
2013-02-18 16:22:00,23.9,4.7,30.15,NNW,329,2.0,5.0,43,0.00,,,0.00,WeatherCatV1.00B22,2013-02-18 21:22:00,
2013-02-18 16:27:00,23.9,4.2,30.15,NE,51,1.0,5.0,42,0.00,,,0.00,WeatherCatV1.00B22,2013-02-18 21:27:00,
2013-02-18 16:32:00,23.9,4.7,30.15,NW,317,0.0,9.0,43,0.00,,,0.00,WeatherCatV1.00B22,2013-02-18 21:32:00,
2013-02-18 16:37:00,23.8,5.1,30.15,NE,36,0.0,3.0,44,0.00,,,0.00,WeatherCatV1.00B22,2013-02-18 21:37:00,
2013-02-18 16:42:00,23.8,4.6,30.15,NW,313,1.0,5.0,43,0.00,,,0.00,WeatherCatV1.00B22,2013-02-18 21:42:00,
2013-02-18 16:47:00,23.7,5.5,30.15,NE,40,1.0,2.0,45,0.00,,,0.00,WeatherCatV1.00B22,2013-02-18 21:47:00,
2013-02-18 16:52:00,23.6,4.9,30.16,NNW,331,0.0,2.0,44,0.00,,,0.00,WeatherCatV1.00B22,2013-02-18 21:52:00,
2013-02-18 16:57:00,23.4,5.2,30.16,West,271,2.0,5.0,45,0.00,,,0.00,WeatherCatV1.00B22,2013-02-18 21:57:00,
2013-02-18 17:02:00,23.3,5.1,30.16,WSW,257,3.0,6.0,45,0.00,,,0.00,WeatherCatV1.00B22,2013-02-18 22:02:00,
2013-02-18 17:07:00,23.1,5.4,30.16,NNE,16,2.0,4.0,46,0.00,,,0.00,WeatherCatV1.00B22,2013-02-18 22:07:00,
2013-02-18 17:12:00,23.0,5.8,30.17,NNW,340,1.0,4.0,47,0.00,,,0.00,WeatherCatV1.00B22,2013-02-18 22:12:00,
2013-02-18 17:17:00,22.9,5.7,30.16,NNE,22,2.0,3.0,47,0.00,,,0.00,WeatherCatV1.00B22,2013-02-18 22:17:00,
2013-02-18 17:22:00,22.7,5.1,30.16,NNW,348,2.0,6.0,46,0.00,,,0.00,WeatherCatV1.00B22,2013-02-18 22:22:00,
2013-02-18 17:27:00,22.6,5.4,30.17,NE,51,1.0,2.0,47,0.00,,,0.00,WeatherCatV1.00B22,2013-02-18 22:27:00,
2013-02-18 17:32:00,22.4,5.7,30.17,NE,51,4.0,4.0,48,0.00,,,0.00,WeatherCatV1.00B22,2013-02-18 22:32:00,
2013-02-18 17:37:00,22.2,5.5,30.17,NW,324,0.0,4.0,48,0.00,,,0.00,WeatherCatV1.00B22,2013-02-18 22:37:00,
2013-02-18 17:42:00,22.1,5.4,30.17,NNE,22,1.0,3.0,48,0.00,,,0.00,WeatherCatV1.00B22,2013-02-18 22:42:00,
2013-02-18 17:47:00,22.0,5.8,30.17,NNE,22,2.0,2.0,49,0.00,,,0.00,WeatherCatV1.00B22,2013-02-18 22:47:00,
2013-02-18 17:52:00,21.8,6.1,30.17,NNE,22,1.0,2.0,50,0.00,,,0.00,WeatherCatV1.00B22,2013-02-18 22:52:00,
2013-02-18 17:57:00,21.6,5.9,30.17,NNE,22,3.0,3.0,50,0.00,,,0.00,WeatherCatV1.00B22,2013-02-18 22:57:00,
2013-02-18 18:02:00,21.3,6.0,30.17,North,5,1.0,4.0,51,0.00,,,0.00,WeatherCatV1.00B22,2013-02-18 23:02:00,
2013-02-18 18:07:00,21.2,6.8,30.18,North,5,0.0,1.0,53,0.00,,,0.00,WeatherCatV1.00B22,2013-02-18 23:07:00,
2013-02-18 18:12:00,21.1,6.3,30.18,North,5,1.0,2.0,52,0.00,,,0.00,WeatherCatV1.00B22,2013-02-18 23:12:00,
2013-02-18 18:17:00,20.9,6.9,30.17,NNE,15,0.0,1.0,54,0.00,,,0.00,WeatherCatV1.00B22,2013-02-18 23:17:00,
2013-02-18 18:22:00,20.7,6.3,30.18,NNE,15,1.0,1.0,53,0.00,,,0.00,WeatherCatV1.00B22,2013-02-18 23:22:00,
2013-02-18 18:27:00,20.6,6.2,30.18,NNE,15,0.0,1.0,53,0.00,,,0.00,WeatherCatV1.00B22,2013-02-18 23:27:00,
2013-02-18 18:32:00,20.5,6.1,30.18,NNE,15,0.0,0.0,53,0.00,,,0.00,WeatherCatV1.00B22,2013-02-18 23:32:00,
2013-02-18 18:37:00,20.5,6.1,30.18,NNE,15,0.0,0.0,53,0.00,,,0.00,WeatherCatV1.00B22,2013-02-18 23:37:00,
2013-02-18 18:42:00,-999.0,-99.9,30.19,North,-999,-999.0,0.0,-999,0.00,,,0.00,WeatherCatV1.00B22,2013-02-18 23:42:00,
2013-02-18 18:47:00,-999.0,-99.9,30.19,North,-999,-999.0,0.0,-999,0.00,,,0.00,WeatherCatV1.00B22,2013-02-18 23:47:00,
2013-02-18 18:52:00,-999.0,-99.9,30.19,North,-999,-999.0,0.0,-999,0.00,,,0.00,WeatherCatV1.00B22,2013-02-18 23:52:00,
2013-02-18 18:57:00,19.7,7.7,30.19,NNE,15,0.0,0.0,59,0.00,,,0.00,WeatherCatV1.00B22,2013-02-18 23:57:00,
2013-02-18 19:02:00,19.5,7.2,30.19,NNE,15,0.0,0.0,58,0.00,,,0.00,WeatherCatV1.00B22,2013-02-19 00:02:00,
2013-02-18 19:07:00,19.4,7.4,30.19,NNE,15,0.0,0.0,59,0.00,,,0.00,WeatherCatV1.00B22,2013-02-19 00:07:00,
2013-02-18 19:12:00,19.1,6.8,30.19,NNE,15,0.0,0.0,58,0.00,,,0.00,WeatherCatV1.00B22,2013-02-19 00:12:00,
2013-02-18 19:17:00,19.1,7.5,30.19,NNE,15,0.0,1.0,60,0.00,,,0.00,WeatherCatV1.00B22,2013-02-19 00:17:00,
2013-02-18 19:22:00,19.1,7.2,30.19,NNE,15,0.0,2.0,59,0.00,,,0.00,WeatherCatV1.00B22,2013-02-19 00:22:00,
2013-02-18 19:27:00,19.1,7.2,30.20,NNE,15,1.0,1.0,59,0.00,,,0.00,WeatherCatV1.00B22,2013-02-19 00:27:00,
2013-02-18 19:32:00,19.0,7.4,30.20,NNE,15,0.0,0.0,60,0.00,,,0.00,WeatherCatV1.00B22,2013-02-19 00:32:00,
2013-02-18 19:37:00,18.9,7.0,30.20,NNE,15,0.0,0.0,59,0.00,,,0.00,WeatherCatV1.00B22,2013-02-19 00:37:00,
2013-02-18 19:42:00,18.9,7.0,30.19,NNE,15,0.0,0.0,59,0.00,,,0.00,WeatherCatV1.00B22,2013-02-19 00:42:00,
2013-02-18 19:47:00,18.8,6.9,30.19,NNE,15,0.0,0.0,59,0.00,,,0.00,WeatherCatV1.00B22,2013-02-19 00:47:00,
2013-02-18 19:52:00,18.7,7.5,30.20,NNE,15,0.0,1.0,61,0.00,,,0.00,WeatherCatV1.00B22,2013-02-19 00:52:00,
2013-02-18 19:57:00,18.6,7.1,30.19,NNE,15,0.0,0.0,60,0.00,,,0.00,WeatherCatV1.00B22,2013-02-19 00:57:00,
2013-02-18 20:02:00,18.5,7.0,30.19,NNE,15,0.0,0.0,60,0.00,,,0.00,WeatherCatV1.00B22,2013-02-19 01:02:00,
2013-02-18 20:07:00,18.4,7.2,30.19,NNE,15,0.0,0.0,61,0.00,,,0.00,WeatherCatV1.00B22,2013-02-19 01:07:00,
2013-02-18 20:12:00,18.3,7.1,30.19,NNE,15,0.0,1.0,61,0.00,,,0.00,WeatherCatV1.00B22,2013-02-19 01:12:00,
2013-02-18 20:17:00,18.2,7.0,30.19,NNE,15,0.0,0.0,61,0.00,,,0.00,WeatherCatV1.00B22,2013-02-19 01:17:00,
2013-02-18 20:22:00,18.2,7.0,30.19,NNE,15,1.0,2.0,61,0.00,,,0.00,WeatherCatV1.00B22,2013-02-19 01:22:00,
2013-02-18 20:27:00,18.4,7.2,30.19,NNE,15,0.0,1.0,61,0.00,,,0.00,WeatherCatV1.00B22,2013-02-19 01:27:00,
2013-02-18 20:32:00,18.3,7.5,30.19,NNE,15,1.0,1.0,62,0.00,,,0.00,WeatherCatV1.00B22,2013-02-19 01:32:00,
2013-02-18 20:37:00,18.4,7.2,30.19,NNE,15,1.0,1.0,61,0.00,,,0.00,WeatherCatV1.00B22,2013-02-19 01:37:00,
2013-02-18 20:42:00,18.4,7.2,30.18,NNE,15,0.0,1.0,61,0.00,,,0.00,WeatherCatV1.00B22,2013-02-19 01:42:00,
2013-02-18 20:47:00,18.4,7.6,30.18,NNE,15,0.0,0.0,62,0.00,,,0.00,WeatherCatV1.00B22,2013-02-19 01:47:00,
2013-02-18 20:52:00,18.3,6.8,30.18,NNE,15,0.0,0.0,60,0.00,,,0.00,WeatherCatV1.00B22,2013-02-19 01:52:00,
2013-02-18 20:57:00,18.2,7.8,30.18,NNE,15,0.0,0.0,63,0.00,,,0.00,WeatherCatV1.00B22,2013-02-19 01:57:00,
2013-02-18 21:02:00,18.0,7.6,30.18,NNE,15,0.0,1.0,63,0.00,,,0.00,WeatherCatV1.00B22,2013-02-19 02:02:00,
2013-02-18 21:07:00,17.9,8.5,30.18,NNE,15,1.0,2.0,66,0.00,,,0.00,WeatherCatV1.00B22,2013-02-19 02:07:00,
2013-02-18 21:12:00,17.7,8.3,30.19,NNE,15,1.0,1.0,66,0.00,,,0.00,WeatherCatV1.00B22,2013-02-19 02:12:00,
2013-02-18 21:17:00,17.6,8.2,30.19,NNE,15,0.0,1.0,66,0.00,,,0.00,WeatherCatV1.00B22,2013-02-19 02:17:00,
2013-02-18 21:22:00,17.5,8.4,30.20,NNE,15,1.0,2.0,67,0.00,,,0.00,WeatherCatV1.00B22,2013-02-19 02:22:00,
2013-02-18 21:27:00,17.3,8.6,30.20,NNE,15,0.0,0.0,68,0.00,,,0.00,WeatherCatV1.00B22,2013-02-19 02:27:00,
2013-02-18 21:32:00,17.1,8.4,30.20,NNE,15,0.0,1.0,68,0.00,,,0.00,WeatherCatV1.00B22,2013-02-19 02:32:00,
2013-02-18 21:37:00,16.8,8.4,30.20,NNE,15,0.0,0.0,69,0.00,,,0.00,WeatherCatV1.00B22,2013-02-19 02:37:00,
2013-02-18 21:42:00,16.3,7.9,30.20,NNE,15,0.0,0.0,69,0.00,,,0.00,WeatherCatV1.00B22,2013-02-19 02:42:00,
2013-02-18 21:47:00,16.2,7.8,30.20,NNE,15,0.0,1.0,69,0.00,,,0.00,WeatherCatV1.00B22,2013-02-19 02:47:00,
2013-02-18 21:52:00,16.1,8.1,30.19,NNE,15,0.0,0.0,70,0.00,,,0.00,WeatherCatV1.00B22,2013-02-19 02:52:00,
2013-02-18 21:57:00,16.0,8.0,30.19,NNE,15,0.0,0.0,70,0.00,,,0.00,WeatherCatV1.00B22,2013-02-19 02:57:00,
2013-02-18 22:02:00,15.9,7.9,30.18,NNE,15,0.0,1.0,70,0.00,,,0.00,WeatherCatV1.00B22,2013-02-19 03:02:00,
2013-02-18 22:07:00,15.9,7.9,30.18,NNE,15,0.0,1.0,70,0.00,,,0.00,WeatherCatV1.00B22,2013-02-19 03:07:00,
2013-02-18 22:12:00,15.8,8.1,30.18,NNE,15,0.0,0.0,71,0.00,,,0.00,WeatherCatV1.00B22,2013-02-19 03:12:00,
2013-02-18 22:17:00,15.8,8.1,30.18,NNE,15,0.0,0.0,71,0.00,,,0.00,WeatherCatV1.00B22,2013-02-19 03:17:00,
2013-02-18 22:22:00,15.7,7.7,30.18,NNE,15,0.0,0.0,70,0.00,,,0.00,WeatherCatV1.00B22,2013-02-19 03:22:00,
2013-02-18 22:27:00,15.6,8.2,30.18,NNE,15,0.0,0.0,72,0.00,,,0.00,WeatherCatV1.00B22,2013-02-19 03:27:00,
2013-02-18 22:32:00,15.4,8.0,30.18,NNE,15,0.0,0.0,72,0.00,,,0.00,WeatherCatV1.00B22,2013-02-19 03:32:00,
2013-02-18 22:37:00,15.2,7.8,30.18,NNE,15,0.0,0.0,72,0.00,,,0.00,WeatherCatV1.00B22,2013-02-19 03:37:00,
2013-02-18 22:42:00,15.0,7.6,30.18,NNE,15,0.0,0.0,72,0.00,,,0.00,WeatherCatV1.00B22,2013-02-19 03:42:00,
2013-02-18 22:47:00,14.8,7.7,30.17,NNE,15,0.0,0.0,73,0.00,,,0.00,WeatherCatV1.00B22,2013-02-19 03:47:00,
2013-02-18 22:52:00,14.8,7.7,30.18,NNE,15,0.0,1.0,73,0.00,,,0.00,WeatherCatV1.00B22,2013-02-19 03:52:00,
2013-02-18 22:57:00,14.7,7.6,30.18,NNE,15,0.0,1.0,73,0.00,,,0.00,WeatherCatV1.00B22,2013-02-19 03:57:00,
2013-02-18 23:02:00,14.8,7.4,30.17,SSE,148,2.0,5.0,72,0.00,,,0.00,WeatherCatV1.00B22,2013-02-19 04:02:00,
2013-02-18 23:07:00,15.2,7.5,30.17,South,175,1.0,4.0,71,0.00,,,0.00,WeatherCatV1.00B22,2013-02-19 04:07:00,
2013-02-18 23:12:00,15.5,7.5,30.17,South,175,2.0,2.0,70,0.00,,,0.00,WeatherCatV1.00B22,2013-02-19 04:12:00,
2013-02-18 23:17:00,15.8,7.5,30.17,South,175,0.0,2.0,69,0.00,,,0.00,WeatherCatV1.00B22,2013-02-19 04:17:00,
2013-02-18 23:22:00,16.1,7.4,30.17,South,185,4.0,4.0,68,0.00,,,0.00,WeatherCatV1.00B22,2013-02-19 04:22:00,
2013-02-18 23:27:00,16.4,7.4,30.17,South,190,1.0,3.0,67,0.00,,,0.00,WeatherCatV1.00B22,2013-02-19 04:27:00,
2013-02-18 23:32:00,16.7,7.3,30.17,SSW,197,2.0,5.0,66,0.00,,,0.00,WeatherCatV1.00B22,2013-02-19 04:32:00,
2013-02-18 23:37:00,17.0,7.3,30.17,South,184,1.0,4.0,65,0.00,,,0.00,WeatherCatV1.00B22,2013-02-19 04:37:00,
2013-02-18 23:42:00,17.2,7.1,30.18,South,182,2.0,4.0,64,0.00,,,0.00,WeatherCatV1.00B22,2013-02-19 04:42:00,
2013-02-18 23:47:00,17.4,7.3,30.18,SSE,155,4.0,4.0,64,0.00,,,0.00,WeatherCatV1.00B22,2013-02-19 04:47:00,
2013-02-18 23:52:00,17.4,7.0,30.18,South,173,1.0,5.0,63,0.00,,,0.00,WeatherCatV1.00B22,2013-02-19 04:52:00,
2013-02-18 23:57:00,17.5,7.1,30.18,South,171,2.0,4.0,63,0.00,,,0.00,WeatherCatV1.00B22,2013-02-19 04:57:00,